Location: *
(44.6480°S, 51.1140°W)
Time: 12:21:47
(UTC+00:00)

Daily predictions for brighter satellites

Satellite Brightness Start Highest point End
(mag) Time Altitude Azimuth Time Altitude Azimuth Time Altitude Azimuth
Cosmos 1707 Rocket 4.4 22:19:57 10° S 22:23:55 31° ESE 22:27:49 10° NE
IRS-1A Rocket 4.4 22:18:31 10° SSE 22:24:14 87° WSW 22:29:58 10° NNW
Cosmos 1844 Rocket 4.5 22:21:56 10° S 22:25:38 17° SE 22:29:20 10° E
Cosmos 2016 Rocket 4.3 22:20:11 10° S 22:26:11 47° ESE 22:32:10 10° NNE
Cosmos 1626 3.5 22:22:54 10° NNW 22:26:32 46° WSW 22:30:15 10° S
MONITOR-E 4.2 22:24:00 10° SSE 22:27:11 86° ENE 22:30:20 10° NNW
Cosmos 2100 Rocket 4.0 22:22:41 10° S 22:29:05 74° E 22:35:20 10° NNE
NOSS 3-4 (A) 4.2 22:21:36 10° N 22:29:06 49° ENE 22:36:27 10° SE
NOSS 3-4 (C) 4.2 22:21:43 10° N 22:29:12 49° ENE 22:36:33 10° SE
CENTAUR R/B 3.5 22:23:45 10° SSW 22:29:15 30° SE 22:34:16 10° E
NOSS 3-2 (A) 3.5 22:25:05 10° SW 22:31:47 83° SE 22:37:48 10° NE
ERS-2 3.3 22:30:05 10° S 22:33:45 51° WSW 22:37:22 10° NNW
Cosmos 1151 Rocket 4.1 22:30:19 10° SSW 22:34:33 50° W 22:38:45 10° N
Cosmos 1805 Rocket 3.9 22:31:22 10° NNE 22:35:40 48° E 22:40:03 10° SSE
Cosmos 2151 3.9 22:31:35 10° NNW 22:35:45 54° WSW 22:39:58 10° S
ATLAS 3B R/B 3.7 22:33:06 10° SW 22:40:14 52° WNW 22:47:31 10° NNE
ATLAS CENTAUR R/B 2.8 22:36:12 10° SW 22:40:43 42° WNW 22:44:58 10° N
ATLAS CENTAUR R/B 1.3 22:40:22 10° NW 22:42:40 64° NE 22:47:30 10° SE
Cosmos 2058 4.3 22:38:58 10° NNW 22:42:56 44° WSW 22:46:59 10° S
Cosmos 2056 Rocket 3.5 22:38:24 10° NNW 22:43:34 87° WSW 22:48:47 10° SSE
Cosmos 1666 Rocket 4.1 22:40:47 10° NNE 22:44:50 38° E 22:48:58 10° SSE
Cosmos 1400 Rocket 4.5 22:41:35 10° NW 22:45:16 38° WSW 22:49:00 10° S
Cosmos 2360 Rocket 2.8 22:41:25 10° NNE 22:46:29 34° ENE 22:51:35 10° SE
Cosmos 1980 Rocket 3.9 22:42:37 10° NW 22:47:56 38° SW 22:53:16 10° SSE
Cosmos 2263 Rocket 2.2 22:42:14 10° SSW 22:47:58 84° ESE 22:53:42 10° NNE
Cosmos 676 Rocket 4.1 22:43:35 10° SSW 22:48:54 71° ESE 22:54:12 10° NNE
Cosmos 1633 Rocket 3.7 22:46:33 10° NNE 22:50:37 36° E 22:54:45 10° SSE
Helios 1B rocket 2.7 22:46:40 10° NNE 22:50:41 51° ESE 22:54:46 10° S
NOAA 12 4.1 22:46:01 10° SSE 22:51:21 76° ENE 22:56:38 10° N
Cosmos 1000 Rocket 4.5 22:45:13 10° N 22:51:22 85° E 22:57:39 10° S
Cosmos 407 Rocket 3.8 22:46:34 10° SSW 22:51:58 74° WNW 22:57:20 10° NNE
Lacrosse 5 2.4 22:48:24 10° SW 22:53:27 51° SE 22:57:45 14° ENE
Cosmos 2173 Rocket 4.3 22:48:47 10° S 22:55:15 79° W 23:01:35 10° N
Envisat 4.4 22:52:03 10° SE 22:55:35 18° E 22:57:55 14° ENE
Cosmos 2322 Rocket 2.3 22:49:58 10° NNW 22:55:41 87° WSW 23:01:29 10° SSE
GEOS 3 Rocket 4.3 22:51:27 12° ENE 22:55:56 43° SE 23:00:46 10° SSW
Cosmos 1892 4.4 22:55:49 14° ENE 22:56:53 16° E 22:59:17 10° SE
COSMOS 2428 4.0 22:53:26 10° NE 22:57:17 19° E 23:01:11 10° ESE
FREGAT/IRIS 2.6 22:57:48 10° SSE 23:00:54 63° ENE 23:03:56 10° N
Cosmos 1452 Rocket 3.6 22:56:04 10° N 23:01:14 56° ENE 23:06:29 10° SSE
SJ-6B 3.1 23:03:15 10° SSE 23:07:13 46° E 23:11:02 10° N
Resurs 01 Rocket 2.8 23:04:06 10° SE 23:07:40 23° E 23:09:22 18° NE
Cosmos 1346 Rocket 3.1 23:04:24 10° SSW 23:08:35 75° W 23:12:40 10° N
Cosmos 1340 3.8 23:07:00 10° SSE 23:10:25 28° ESE 23:12:02 21° ENE
Cosmos 1023 Rocket 4.5 23:05:33 10° SSW 23:10:49 81° ESE 23:15:34 13° NNE
Cosmos 614 Rocket 3.9 23:06:58 10° SSW 23:12:07 74° ESE 23:16:24 15° NNE
Cosmos 921 Rocket 2.9 23:13:29 10° NNW 23:17:44 89° SW 23:22:00 10° SSE
USA 32 4.0 23:15:31 10° N 23:20:45 67° E 23:26:03 10° S
Cosmos 2278 Rocket 4.0 23:17:28 10° S 23:21:21 18° SE 23:24:27 12° E
BREEZE-M DEB (TANK) 4.3 23:06:50 10° WSW 23:22:02 66° NW 23:24:37 22° NE
H-2A R/B 2.8 23:18:50 10° S 23:22:39 82° WSW 23:26:28 10° NNW
Cosmos 2123 Rocket 4.0 23:16:50 10° N 23:23:13 85° E 23:29:39 10° S
Cosmos 2322 3.8 23:18:29 10° N 23:23:59 54° ENE 23:29:33 10° SE
HJ-1C 3.3 23:20:35 10° SSE 23:24:03 79° ENE 23:27:27 10° N
Cosmos 220 Rocket 3.9 23:22:38 10° SSW 23:26:57 76° ESE 23:29:28 24° NNE
Cosmos 1725 Rocket 4.0 23:20:47 10° S 23:27:06 86° W 23:33:23 10° N
Cosmos 1437 4.5 23:24:49 10° SSE 23:27:15 19° ESE 23:27:15 19° ESE
USA 215 3.9 23:22:24 15° E 23:27:38 49° SSE 23:33:58 10° SW
Cosmos 2233 Rocket 4.0 23:25:47 10° S 23:32:02 67° E 23:36:48 18° NNE
Meteor 1-29 3.3 23:31:11 18° N 23:33:38 67° WNW 23:37:10 10° SSW
Cosmos 2219 Rocket 3.3 23:33:55 23° ENE 23:34:03 23° E 23:38:27 10° SE
ALOS 3.9 23:33:42 10° S 23:38:04 37° WSW 23:42:22 10° NW
BREEZE-M DEB (TANK) 3.4 23:36:38 10° W 23:38:44 27° NNW 23:39:20 25° N
Cosmos 2242 Rocket 3.6 23:38:18 10° S 23:42:49 88° W 23:45:30 24° N
Cosmos 1470 Rocket 3.5 23:40:12 20° N 23:43:11 68° E 23:47:35 10° SSE
Cosmos 1420 Rocket 4.0 23:38:21 10° NNW 23:43:36 86° WSW 23:48:53 10° SSE
CZ-2D R/B 3.1 23:43:32 10° SSE 23:47:28 87° ENE 23:50:03 20° NNW
Cosmos 1140 Rocket 4.4 23:45:48 10° SSW 23:50:49 46° WNW 23:54:57 15° N
NOSS 3-2 (C) 4.5 23:45:58 10° SW 23:51:56 40° WNW 23:56:16 16° N
SL-16 R/B 4.0 23:48:09 10° WNW 23:53:18 34° SW 23:58:29 10° S
